GW7336 Weather Reports


Display with metric or nautical units.
time (UTC)temp
F
wind
direction
speed
MPH
gust
MPH
rain 1hr
in
rain 24hr
in
rain mn
in
humidity
%
barometer
mb
20260510204518 66 274 0.0 0.0 0.00 0.10 0.02 55 1010.9
20260510204012 67 111 0.0 0.0 0.00 0.11 0.02 58 1010.7
20260510203504 67 242 0.0 0.0 0.00 0.12 0.02 55 1010.7
20260510203014 67 355 0.0 9.0 0.00 0.12 0.02 55 1010.8
20260510202510 68 258 0.0 9.0 0.00 0.12 0.02 54 1010.7
20260510202002 68 61 0.0 0.0 0.00 0.12 0.02 58 1010.7
20260510201509 68 107 0.0 0.0 0.00 0.13 0.02 56 1010.7
20260510201007 68 213 0.0 0.0 0.00 0.14 0.02 58 1010.7
20260510200505 68 82 0.0 0.0 0.00 0.14 0.02 58 1010.7
20260510200008 68 279 0.0 0.0 0.00 0.15 0.02 60 1010.7
20260510195504 68 360 0.0 0.0 0.00 0.16 0.02 59 1010.8
20260510195007 68 253 0.0 0.0 0.00 0.16 0.02 57 1010.8
20260510194507 68 315 0.0 4.0 0.00 0.16 0.02 58 1010.8
20260510194006 68 224 0.0 4.0 0.00 0.16 0.02 58 1010.9
20260510193504 68 250 0.0 0.0 0.00 0.16 0.02 56 1010.9
20260510193022 68 164 0.0 0.0 0.00 0.17 0.02 58 1010.8
20260510192503 67 277 0.0 8.0 0.00 0.17 0.02 59 1010.7
20260510192005 67 32 0.0 8.0 0.00 0.18 0.02 61 1010.8
20260510191521 67 260 0.0 0.0 0.00 0.18 0.02 61 1010.8
20260510191008 67 350 0.0 0.0 0.00 0.18 0.02 62 1010.9
20260510190504 67 114 0.0 0.0 0.00 0.18 0.02 64 1010.9
20260510190017 67 77 0.0 0.0 0.02 0.19 0.02 63 1010.9
20260510185511 67 11 0.0 8.0 0.02 0.19 0.02 63 1011.0
20260510185004 66 262 0.0 8.0 0.02 0.20 0.02 63 1010.9
20260510184512 66 83 0.0 0.0 0.02 0.20 0.02 42 1011.0
20260510184008 65 87 0.0 0.0 0.02 0.20 0.02 57 1010.9
20260510183509 64 292 0.0 1.0 0.02 0.21 0.02 57 1011.0
20260510183008 64 38 0.0 1.0 0.02 0.22 0.02 41 1011.0
20260510182505 63 46 0.0 0.0 0.02 0.22 0.02 26 1011.1
20260510182007 62 43 0.0 0.0 0.02 0.23 0.02 34 1011.2
20260510181507 62 192 0.0 0.0 0.02 0.24 0.02 43 1011.2
20260510181006 63 321 0.0 0.0 0.02 0.25 0.02 49 1011.2
20260510180507 64 321 0.0 0.0 0.02 0.26 0.02 62 1011.3
20260510180026 65 360 0.0 0.0 0.00 0.24 0.00 64 1011.1
20260510175503 66 56 0.0 1.0 0.00 0.25 0.00 61 1011.1
20260510175003 66 241 0.0 1.0 0.00 0.26 0.00 61 1011.0
20260510174522 66 204 0.0 0.0 0.00 0.26 0.00 61 1011.0
20260510174004 67 293 0.0 0.0 0.00 0.27 0.00 60 1011.2
20260510173504 67 55 0.0 0.0 0.00 0.28 0.00 60 1011.1
20260510173023 67 278 0.0 11.0 0.00 0.28 0.00 62 1011.1
20260510172511 67 315 0.0 11.0 0.00 0.29 0.00 60 1011.1
20260510172005 67 336 0.0 0.0 0.00 0.30 0.00 60 1011.3
20260510171515 66 323 0.0 0.0 0.00 0.30 0.00 64 1011.3
20260510171007 65 136 0.0 0.0 0.00 0.31 0.00 64 1011.4
20260510170511 64 344 0.0 0.0 0.00 0.32 0.00 64 1011.5
20260510170014 64 182 0.0 0.0 0.00 0.32 0.00 65 1011.5
20260510165510 64 292 0.0 0.0 0.00 0.33 0.00 65 1011.6
20260510165011 64 180 0.0 0.0 0.00 0.34 0.00 64 1011.6
20260510164522 64 90 0.0 0.0 0.00 0.36 0.00 65 1011.7
20260510164006 64 355 0.0 0.0 0.00 0.36 0.00 65 1011.6
20260510163509 64 287 0.0 0.0 0.00 0.38 0.00 64 1011.7
20260510163026 64 225 0.0 0.0 0.00 0.38 0.00 65 1011.6
20260510162504 65 113 0.0 0.0 0.00 0.38 0.00 64 1011.7
20260510162013 65 163 0.0 1.0 0.00 0.39 0.00 64 1011.7
20260510161523 64 295 0.0 1.0 0.00 0.40 0.00 61 1011.7
20260510161006 64 293 0.0 1.0 0.00 0.40 0.00 61 1011.6
20260510160508 63 148 0.0 0.0 0.00 0.41 0.00 64 1011.6
20260510160020 63 302 0.0 0.0 0.00 0.42 0.00 64 1011.7
20260510155511 63 231 0.0 0.0 0.00 0.42 0.00 61 1011.7
20260510155004 63 124 0.0 1.0 0.00 0.42 0.00 41 1011.7
20260510154522 62 305 0.0 1.0 0.00 0.42 0.00 59 1011.8
20260510154009 61 21 0.0 0.0 0.00 0.43 0.00 36 1011.8
20260510153503 60 95 0.0 0.0 0.00 0.44 0.00 27 1011.9
20260510153019 60 95 0.0 0.0 0.00 0.44 0.00 37 1011.8
20260510152506 60 95 0.0 0.0 0.00 0.44 0.00 20 1011.8
20260510152011 59 95 0.0 0.0 0.00 0.44 0.00 31 1011.9
20260510151510 59 118 0.0 0.0 0.00 0.45 0.00 18 1011.9
20260510151007 59 93 0.0 0.0 0.00 0.45 0.00 19 1012.0
20260510150507 58 133 0.0 0.0 0.00 0.46 0.00 13 1011.9
20260510150032 57 227 0.0 0.0 0.00 0.46 0.00 20 1011.9
20260510145505 58 302 0.0 2.0 0.00 0.46 0.00 18 1012.0
20260510145007 58 142 0.0 2.0 0.00 0.47 0.00 6 1011.9
20260510144533 57 121 0.0 1.0 0.00 0.48 0.00 100 1012.0
20260510144008 57 135 0.0 1.0 0.00 0.48 0.00 100 1012.0
20260510143508 56 304 0.0 0.0 0.00 0.48 0.00 100 1011.9
20260510143025 55 101 0.0 1.0 0.00 0.48 0.00 100 1012.0
20260510142512 55 91 0.0 5.0 0.00 0.49 0.00 100 1012.1
20260510142007 54 140 0.0 5.0 0.00 0.49 0.00 100 1012.2
20260510141523 54 125 0.0 3.0 0.00 0.50 0.00 100 1012.3
20260510141011 54 101 0.0 5.0 0.00 0.50 0.00 100 1012.3
20260510140503 53 71 0.0 5.0 0.00 0.50 0.00 100 1012.1
20260510140019 53 302 0.0 2.0 0.00 0.51 0.00 100 1012.2
20260510135509 52 194 0.0 2.0 0.00 0.51 0.00 100 1012.1
20260510135008 52 249 0.0 2.0 0.00 0.52 0.00 100 1012.1
20260510134516 52 107 0.0 1.0 0.00 0.52 0.00 100 1012.1
20260510134007 52 85 0.0 0.0 0.00 0.52 0.00 100 1012.0
20260510133507 52 241 0.0 2.0 0.00 0.52 0.00 100 1012.0
20260510133026 52 240 0.0 2.0 0.00 0.52 0.00 100 1012.0
20260510132508 52 346 0.0 0.0 0.00 0.52 0.00 100 1011.9
20260510132010 51 339 0.0 0.0 0.00 0.52 0.00 100 1012.0
20260510131525 51 209 0.0 0.0 0.00 0.52 0.00 100 1012.0
20260510131003 51 124 0.0 0.0 0.00 0.52 0.00 100 1011.9
20260510130510 51 124 0.0 2.0 0.00 0.54 0.00 100 1011.9
20260510130025 51 158 0.0 2.0 0.00 0.54 0.00 100 1011.8
20260510125507 51 135 0.0 0.0 0.00 0.54 0.00 100 1011.8
20260510125006 51 135 0.0 0.0 0.00 0.54 0.00 100 1011.8
20260510124528 51 144 0.0 1.0 0.00 0.54 0.00 100 1011.9
20260510124011 51 301 0.0 1.0 0.00 0.55 0.00 100 1011.8
20260510123504 51 180 0.0 0.0 0.00 0.55 0.00 100 1011.7
20260510123019 51 286 0.0 1.0 0.00 0.55 0.00 100 1011.9
20260510122508 50 286 0.0 6.0 0.00 0.55 0.00 100 1011.9
20260510122011 50 280 0.0 6.0 0.00 0.55 0.00 100 1011.9
20260510121515 50 240 0.0 5.0 0.00 0.55 0.00 100 1011.9
20260510121007 50 31 0.0 3.0 0.00 0.55 0.00 100 1011.9
20260510120518 50 271 0.0 3.0 0.00 0.55 0.00 100 1011.9
20260510120028 50 308 0.0 0.0 0.00 0.55 0.00 100 1011.9
20260510115507 50 308 0.0 0.0 0.00 0.55 0.00 100 1011.8
20260510115013 50 336 0.0 0.0 0.00 0.55 0.00 100 1011.9
20260510114528 49 69 0.0 0.0 0.00 0.55 0.00 100 1011.8
20260510114007 49 111 0.0 0.0 0.00 0.55 0.00 100 1011.8
20260510113508 49 146 0.0 0.0 0.00 0.55 0.00 100 1011.9
20260510113024 48 76 0.0 0.0 0.00 0.55 0.00 100 1012.1
20260510112507 48 22 0.0 0.0 0.00 0.55 0.00 100 1011.8
20260510112010 48 22 0.0 0.0 0.00 0.55 0.00 100 1011.8
20260510111526 48 22 0.0 0.0 0.00 0.55 0.00 100 1011.6
20260510111011 48 22 0.0 0.0 0.00 0.55 0.00 100 1011.4
20260510110508 48 22 0.0 0.0 0.00 0.55 0.00 100 1011.3
20260510110022 48 17 0.0 0.0 0.00 0.55 0.00 100 1011.3
20260510105510 47 17 0.0 0.0 0.00 0.55 0.00 100 1011.3
20260510105007 47 17 0.0 0.0 0.00 0.55 0.00 100 1011.2
20260510104520 47 17 0.0 0.0 0.00 0.55 0.00 100 1011.3
20260510104008 47 17 0.0 0.0 0.00 0.55 0.00 100 1011.0
20260510103510 47 17 0.0 0.0 0.00 0.55 0.00 100 1011.0
20260510103029 47 17 0.0 0.0 0.00 0.55 0.00 100 1011.0
20260510102510 47 17 0.0 0.0 0.00 0.55 0.00 100 1011.1
20260510102006 47 17 0.0 0.0 0.00 0.55 0.00 100 1011.0
20260510101526 47 17 0.0 0.0 0.00 0.55 0.00 100 1011.0
20260510101008 47 17 0.0 0.0 0.00 0.55 0.00 100 1010.7
20260510100507 47 17 0.0 0.0 0.00 0.55 0.00 100 1010.5
20260510100027 47 17 0.0 0.0 0.00 0.55 0.00 100 1010.6
20260510095516 47 16 0.0 0.0 0.00 0.55 0.00 100 1010.6
20260510095009 47 17 0.0 0.0 0.00 0.55 0.00 100 1010.5
20260510094537 47 17 0.0 0.0 0.00 0.55 0.00 100 1010.5
20260510094008 47 17 0.0 0.0 0.00 0.55 0.00 100 1010.6
20260510093508 47 17 0.0 0.0 0.00 0.55 0.00 100 1010.6
20260510093006 47 17 0.0 0.0 0.00 0.55 0.00 100 1010.3
20260510092504 47 16 0.0 0.0 0.00 0.55 0.00 100 1010.4
20260510092008 47 17 0.0 0.0 0.00 0.55 0.00 100 1010.4
20260510091522 47 16 0.0 0.0 0.00 0.55 0.00 100 1010.5
20260510091002 47 17 0.0 0.0 0.00 0.55 0.00 100 1010.7
20260510090505 47 17 0.0 0.0 0.00 0.55 0.00 100 1010.7
20260510090019 47 17 0.0 0.0 0.00 0.55 0.00 100 1010.7
20260510085502 47 16 0.0 0.0 0.00 0.55 0.00 100 1010.7
20260510085007 47 17 0.0 0.0 0.00 0.55 0.00 100 1010.6
20260510084518 47 17 0.0 0.0 0.00 0.55 0.00 100 1010.7
20260510084008 47 17 0.0 0.0 0.00 0.55 0.00 100 1010.7
20260510083503 47 16 0.0 0.0 0.00 0.55 0.00 100 1010.8
20260510083012 47 17 0.0 0.0 0.00 0.55 0.00 100 1010.7
20260510082506 47 17 0.0 0.0 0.00 0.55 0.00 100 1010.5
20260510082013 47 16 0.0 0.0 0.00 0.55 0.00 100 1010.7
20260510081509 47 17 0.0 0.0 0.00 0.55 0.00 100 1010.6
20260510081004 47 17 0.0 0.0 0.00 0.55 0.00 100 1010.5
20260510080505 47 16 0.0 0.0 0.00 0.55 0.00 100 1010.7
20260510080016 46 16 0.0 0.0 0.00 0.55 0.00 100 1010.6
20260510075506 46 16 0.0 0.0 0.00 0.55 0.00 100 1010.5
20260510075008 46 17 0.0 0.0 0.00 0.55 0.00 100 1010.6
20260510074525 46 17 0.0 0.0 0.00 0.55 0.00 100 1010.6
20260510074002 46 16 0.0 0.0 0.00 0.55 0.00 100 1010.6
20260510073506 46 17 0.0 0.0 0.00 0.55 0.00 100 1010.5
20260510073022 46 17 0.0 0.0 0.00 0.55 0.00 100 1010.6
20260510072506 46 16 0.0 0.0 0.00 0.55 0.00 100 1010.6
20260510072004 46 17 0.0 0.0 0.00 0.55 0.00 100 1010.5
20260510071515 46 17 0.0 0.0 0.00 0.55 0.00 100 1010.5
20260510071005 46 16 0.0 0.0 0.00 0.55 0.00 100 1010.5
20260510070502 46 17 0.0 0.0 0.00 0.55 0.00 100 1010.5
20260510070014 46 17 0.0 0.0 0.00 0.55 0.00 100 1010.6
20260510065506 46 17 0.0 0.0 0.00 0.55 0.00 100 1010.6
20260510065008 46 16 0.0 0.0 0.00 0.55 0.00 100 1010.7
20260510064510 46 17 0.0 0.0 0.00 0.55 0.00 100 1010.9
20260510064007 46 17 0.0 0.0 0.00 0.55 0.00 100 1010.8
20260510063508 46 17 0.0 0.0 0.00 0.55 0.00 100 1010.6
20260510063008 46 17 0.0 0.0 0.00 0.55 0.00 100 1010.7
20260510062507 46 16 0.0 0.0 0.00 0.55 0.00 100 1010.7
20260510062009 46 17 0.0 0.0 0.00 0.55 0.00 100 1010.6
20260510061527 46 16 0.0 0.0 0.00 0.55 0.00 100 1010.6
20260510061003 46 17 0.0 0.0 0.00 0.55 0.00 100 1010.7
20260510060507 46 16 0.0 0.0 0.00 0.55 0.00 100 1010.8
20260510060034 46 17 0.0 0.0 0.00 0.55 0.00 100 1010.9
20260510055504 46 17 0.0 0.0 0.00 0.55 0.00 100 1010.7
20260510055006 46 16 0.0 0.0 0.00 0.55 0.00 100 1010.7
20260510054532 46 17 0.0 0.0 0.00 0.55 0.00 100 1010.8
20260510054011 46 17 0.0 0.0 0.00 0.55 0.00 100 1010.8
20260510053504 45 17 0.0 0.0 0.00 0.55 0.00 100 1010.8
20260510053017 45 17 0.0 0.0 0.00 0.55 0.00 100 1010.9
20260510052511 45 16 0.0 0.0 0.00 0.55 0.00 100 1011.0
20260510052009 45 16 0.0 0.0 0.00 0.55 0.00 100 1011.0
20260510051515 45 17 0.0 0.0 0.00 0.55 0.00 100 1010.9
20260510051007 45 17 0.0 0.0 0.00 0.55 0.00 100 1010.9
20260510050509 45 17 0.0 0.0 0.00 0.55 0.00 100 1011.0
20260510050011 45 17 0.0 0.0 0.00 0.55 0.00 100 1011.1
20260510045509 45 17 0.0 0.0 0.00 0.55 0.00 100 1011.2
20260510045010 45 16 0.0 0.0 0.00 0.55 0.00 100 1011.2
20260510044527 45 17 0.0 0.0 0.00 0.55 0.00 100 1011.2
20260510044003 45 17 0.0 0.0 0.00 0.55 0.00 100 1011.1
20260510043507 45 17 0.0 0.0 0.00 0.55 0.00 100 1011.1
20260510043028 45 17 0.0 0.0 0.00 0.55 0.00 100 1011.0
20260510042507 45 17 0.0 0.0 0.00 0.55 0.00 100 1011.1
20260510042003 45 16 0.0 0.0 0.00 0.55 0.00 100 1011.2
20260510041522 45 17 0.0 0.0 0.00 0.55 0.00 100 1011.2
20260510041008 45 17 0.0 0.0 0.00 0.55 0.00 100 1011.2
20260510040504 45 17 0.0 0.0 0.00 0.55 0.00 100 1011.1
20260510040019 45 17 0.0 0.0 0.00 0.55 0.00 100 1011.2
20260510035508 45 17 0.0 0.0 0.00 0.55 0.55 100 1011.0
20260510035010 45 16 0.0 0.0 0.00 0.55 0.55 100 1011.2
20260510034522 45 16 0.0 0.0 0.00 0.55 0.55 100 1011.1
20260510034008 45 16 0.0 0.0 0.00 0.55 0.55 100 1011.3
20260510033510 45 16 0.0 0.0 0.00 0.55 0.55 100 1011.3
20260510033013 45 16 0.0 0.0 0.00 0.55 0.55 100 1011.5
20260510032505 45 17 0.0 0.0 0.00 0.55 0.55 100 1011.6
20260510032009 45 16 0.0 0.0 0.00 0.55 0.55 100 1011.5
20260510031527 45 16 0.0 0.0 0.00 0.55 0.55 100 1011.5
20260510031003 45 17 0.0 0.0 0.00 0.55 0.55 100 1011.6
20260510030512 45 16 0.0 0.0 0.00 0.55 0.55 100 1011.6
20260510030025 45 16 0.0 0.0 0.00 0.55 0.55 100 1011.8
20260510025506 45 16 0.0 0.0 0.00 0.55 0.55 100 1011.7
20260510025011 46 17 0.0 0.0 0.00 0.55 0.55 100 1011.7
20260510024521 46 17 0.0 0.0 0.00 0.55 0.55 100 1011.7
20260510024010 46 17 0.0 0.0 0.00 0.55 0.55 100 1011.9
20260510023506 46 16 0.0 0.0 0.00 0.55 0.55 100 1011.9
20260510023020 45 17 0.0 0.0 0.00 0.55 0.55 100 1011.9
20260510022506 45 17 0.0 0.0 0.00 0.55 0.55 100 1011.8
20260510022010 45 17 0.0 0.0 0.00 0.55 0.55 100 1011.9
20260510021520 45 17 0.0 0.0 0.00 0.55 0.55 100 1011.9
20260510021005 46 17 0.0 0.0 0.00 0.55 0.55 100 1011.9
20260510020511 46 16 0.0 0.0 0.00 0.55 0.55 100 1011.9
20260510020014 46 17 0.0 0.0 0.00 0.55 0.55 100 1011.9
20260510015506 46 17 0.0 0.0 0.00 0.55 0.55 100 1011.9
20260510015006 46 17 0.0 0.0 0.00 0.55 0.55 100 1012.1
20260510014527 46 17 0.0 0.0 0.00 0.55 0.55 100 1012.2
20260510014004 46 17 0.0 0.0 0.00 0.55 0.55 100 1012.2
20260510013510 46 17 0.0 0.0 0.00 0.55 0.55 100 1012.2
20260510013024 45 17 0.0 0.0 0.00 0.55 0.55 100 1012.1
20260510012507 45 17 0.0 0.0 0.00 0.55 0.55 100 1012.0
20260510012009 45 17 0.0 0.0 0.00 0.55 0.55 100 1011.9
20260510011523 45 17 0.0 0.0 0.00 0.55 0.55 100 1012.0
20260510011008 45 17 0.0 0.0 0.00 0.55 0.55 100 1012.0
20260510010511 45 17 0.0 0.0 0.00 0.55 0.55 100 1011.9
20260510010022 45 17 0.0 0.0 0.00 0.55 0.55 100 1011.8
20260510005509 45 16 0.0 0.0 0.00 0.55 0.55 100 1011.7
20260510005007 45 17 0.0 0.0 0.00 0.55 0.55 100 1011.8
20260510004521 45 17 0.0 0.0 0.00 0.55 0.55 100 1011.7
20260510004007 45 17 0.0 0.0 0.00 0.55 0.55 100 1011.7
20260510003507 45 17 0.0 0.0 0.00 0.55 0.55 100 1011.7
20260510003026 45 17 0.0 0.0 0.00 0.55 0.55 100 1011.7
20260510002508 45 16 0.0 0.0 0.00 0.55 0.55 100 1011.6
20260510002003 45 17 0.0 0.0 0.00 0.55 0.55 100 1011.6
20260510001516 45 17 0.0 0.0 0.00 0.55 0.55 100 1011.6
20260510001007 45 16 0.0 0.0 0.00 0.55 0.55 100 1011.6
20260510000508 45 16 0.0 0.0 0.00 0.55 0.55 100 1011.6
20260510000011 45 17 0.0 0.0 0.00 0.55 0.55 100 1011.6
20260509235506 45 17 0.0 0.0 0.00 0.55 0.55 100 1011.6
20260509235006 45 17 0.0 0.0 0.00 0.55 0.55 100 1011.6
20260509234534 45 17 0.0 0.0 0.00 0.55 0.55 100 1011.6
20260509234004 45 17 0.0 0.0 0.00 0.55 0.55 100 1011.6
20260509233507 45 17 0.0 0.0 0.00 0.55 0.55 100 1011.6
20260509233025 45 17 0.0 0.0 0.00 0.55 0.55 100 1011.5
20260509232506 45 17 0.0 0.0 0.00 0.55 0.55 100 1011.5
20260509232007 45 16 0.0 0.0 0.00 0.55 0.55 100 1011.3
20260509231523 45 17 0.0 0.0 0.00 0.55 0.55 100 1011.3
20260509231006 45 16 0.0 0.0 0.01 0.55 0.55 100 1011.5
20260509230503 45 16 0.0 0.0 0.02 0.55 0.55 100 1011.3
20260509230020 45 17 0.0 0.0 0.02 0.55 0.55 100 1011.2
20260509225508 45 17 0.0 0.0 0.02 0.55 0.55 100 1011.2
20260509225004 45 17 0.0 0.0 0.02 0.55 0.55 100 1011.2
20260509224516 45 16 0.0 0.0 0.03 0.55 0.55 100 1011.3
20260509224006 45 17 0.0 0.0 0.04 0.55 0.55 100 1011.3
20260509223510 45 16 0.0 0.0 0.04 0.55 0.55 100 1011.2
20260509223014 45 17 0.0 0.0 0.04 0.55 0.55 100 1011.2
20260509222507 45 17 0.0 0.0 0.05 0.55 0.55 100 1011.2
20260509222007 45 17 0.0 0.0 0.05 0.55 0.55 100 1011.3
20260509221526 45 16 0.0 0.0 0.06 0.55 0.55 100 1011.3
20260509221003 45 17 0.0 0.0 0.05 0.54 0.54 100 1011.3
20260509220508 45 107 0.0 0.0 0.04 0.52 0.52 100 1011.4
20260509220028 45 107 0.0 0.0 0.05 0.52 0.52 100 1011.5
20260509215506 45 107 0.0 0.0 0.06 0.52 0.52 100 1011.5
20260509215012 45 107 0.0 0.0 0.06 0.52 0.52 100 1011.5
20260509214524 45 109 0.0 0.0 0.05 0.52 0.52 100 1011.8
20260509214012 45 109 0.0 0.0 0.05 0.51 0.51 100 1011.9
20260509213504 45 109 0.0 0.0 0.06 0.51 0.51 100 1012.0
20260509213020 45 109 0.0 0.0 0.06 0.51 0.51 100 1011.9
20260509212507 45 107 0.0 0.0 0.05 0.50 0.50 100 1012.0
20260509212005 45 107 0.0 0.0 0.05 0.50 0.50 100 1012.0
20260509211517 45 107 0.0 0.0 0.05 0.49 0.49 100 1012.0
20260509211009 45 107 0.0 0.0 0.06 0.49 0.49 100 1012.0
20260509210508 45 107 0.0 0.0 0.06 0.49 0.49 100 1012.1
20260509210012 45 94 0.0 0.0 0.06 0.48 0.48 100 1012.1
20260509205507 45 94 0.0 0.0 0.06 0.47 0.47 100 1012.2
20260509205007 45 94 0.0 0.0 0.06 0.47 0.47 100 1012.2